Wind_Speed
10 8 8 9 10 10 10 10 10 10 11 11 11 11 11 12 11 10 11 11 9 6 5 4 3 3 4 4 4 3 3 4 4 5 6 6 5 5 6 7 8 8
10 9 9 9 9 9 9 9 9 8 9 9 9 9 10 10 10 9 9 9 8 8 7 5 4 4 5 5 5 5 5 6 7 7 8 8 8 8 8 9 10 10
11 10 9 8 8 8 8 9 8 8 8 8 7 7 7 7 7 7 7 7 9 11 10 7 6 6 6 5 5 6 7 9 10 10 11 11 11 10 10 11 12 12
12 10 8 8 8 8 8 8 8 7 7 7 6 6 5 5 6 6 7 8 10 11 10 9 8 8 8 7 7 8 9 10 11 11 12 12 12 12 12 13 14 14
12 10 9 9 8 9 9 8 7 6 6 6 5 4 3 4 7 8 8 9 10 11 11 10 9 9 9 9 10 10 10 11 12 12 14 14 14 14 14 15 16 16
14 12 10 9 9 9 9 7 5 5 5 5 5 4 3 4 6 7 7 7 8 10 11 10 10 10 10 10 10 10 10 11 12 13 14 15 15 15 15 16 17 18
16 13 11 10 10 10 9 7 5 5 5 6 5 4 4 5 6 6 6 7 8 8 9 9 9 10 9 8 9 10 11 12 12 14 15 16 16 17 17 17 19 20
16 13 12 11 10 10 10 8 7 6 7 6 5 5 6 7 8 8 8 8 7 8 9 9 10 10 8 8 10 11 12 12 13 15 18 19 19 19 19 18 19 21
18 14 12 12 11 12 11 9 8 8 7 7 6 6 8 9 10 10 10 9 9 10 11 10 10 9 9 10 11 12 13 14 16 18 19 20 21 20 19 18 19 21
20 16 14 13 12 13 13 11 9 9 8 7 6 7 9 10 11 11 11 11 11 11 10 9 9 10 11 12 12 13 15 16 17 18 18 19 18 17 16 16 18 19
21 17 15 13 13 14 14 11 9 9 9 8 8 8 8 9 11 12 12 11 12 11 9 9 10 12 13 14 15 16 16 16 16 16 16 17 16 14 14 15 16 17
23 19 15 14 13 14 13 11 9 9 9 9 9 9 10 12 13 13 12 12 12 12 11 11 12 14 15 16 16 15 14 14 15 15 15 16 15 14 14 14 15 16
24 19 16 14 12 12 12 10 9 9 10 11 11 12 14 15 14 13 13 13 12 11 11 12 13 16 16 14 12 12 12 13 14 14 15 16 16 15 15 15 16 16
23 19 17 15 11 11 11 10 9 10 11 12 14 16 16 15 13 14 14 12 10 10 11 12 14 16 15 13 12 11 12 13 14 15 16 17 18 18 17 17 17 17
23 19 18 16 13 11 10 10 10 10 11 13 15 16 16 14 14 15 13 10 9 10 11 11 13 14 14 13 13 12 12 14 15 16 17 19 19 20 20 20 19 19
22 19 18 17 15 13 11 11 11 11 11 13 14 15 14 13 13 13 12 10 9 10 11 11 11 12 12 13 13 12 13 15 17 18 18 19 19 20 21 21 21 20
21 18 20 20 16 13 12 12 12 12 13 14 15 14 13 12 12 12 11 10 10 11 12 12 12 12 12 12 12 13 14 17 19 19 19 19 19 20 21 21 21 21
20 18 23 22 17 14 13 13 13 14 15 16 16 15 13 12 11 11 11 11 11 13 13 14 15 14 13 13 14 14 16 18 20 20 19 19 20 20 21 20 20 19
18 18 24 22 17 16 15 14 15 16 17 18 17 14 13 13 13 12 12 13 14 15 15 16 17 16 15 15 16 16 17 18 20 19 19 19 20 21 21 19 17 16
19 21 24 20 17 18 18 17 17 17 18 19 17 15 14 14 14 14 14 14 16 17 17 18 18 18 17 17 17 18 18 19 19 19 18 19 21 22 20 18 16 16
21 24 23 20 18 19 21 21 19 18 19 19 18 16 15 15 15 15 15 15 16 18 19 20 19 19 18 18 18 18 19 20 20 21 21 21 22 22 20 18 17 16
23 25 23 22 21 21 23 23 21 20 19 20 19 18 16 16 15 15 15 15 16 18 20 21 19 18 19 19 20 21 22 23 24 24 23 21 21 21 20 18 17 17
27 26 24 24 22 23 24 24 22 21 20 20 21 21 19 18 16 15 16 18 18 18 19 20 19 18 19 21 23 24 24 25 25 24 23 20 20 22 22 19 17 17
29 27 25 24 22 23 23 23 24 23 22 22 23 22 21 19 18 18 20 21 19 18 19 19 18 17 19 22 24 23 22 23 23 23 22 22 22 24 23 20 18 18
32 28 23 21 21 22 23 24 24 24 23 23 23 23 23 23 23 22 22 22 20 20 19 18 18 18 18 20 21 21 22 22 22 22 24 25 24 24 23 21 20 20
35 28 21 18 18 20 24 26 26 26 26 25 24 25 27 27 26 23 21 20 19 19 18 18 18 17 16 17 19 21 22 23 23 25 26 24 23 23 23 22 21 21
Wind_Direction
211 210 216 221 228 225 220 222 227 234 240 245 248 242 237 237 240 247 255 261 268 280 288 281 271 271 274 276 285 298 308 320 333 330 325 323 314 301 294 299 309 317
207 206 215 217 217 213 211 216 223 233 243 243 238 231 231 236 241 247 254 260 272 287 293 284 276 281 283 283 289 299 307 314 323 323 320 321 318 304 288 289 301 309
206 203 212 214 212 207 205 210 218 228 235 231 222 219 222 229 236 246 260 273 279 284 289 290 285 283 284 285 292 301 306 311 320 322 317 317 317 307 292 288 296 302
206 200 207 213 213 211 207 207 213 221 224 218 214 215 220 239 256 266 276 282 281 282 288 290 286 284 284 285 287 292 296 301 309 312 311 310 308 305 298 293 294 296
207 201 203 210 214 215 213 207 208 222 229 223 219 221 234 261 273 276 279 281 284 288 289 287 288 289 289 289 291 295 299 303 307 307 305 304 301 300 296 293 293 293
207 203 203 210 215 220 220 210 207 224 236 233 224 229 253 273 280 280 278 285 292 292 288 287 294 301 302 301 301 303 307 312 317 317 311 307 302 297 294 293 293 291
206 203 204 210 215 223 223 212 207 214 221 224 220 232 258 272 285 286 283 292 302 300 294 293 302 311 311 309 310 313 317 319 318 316 311 308 301 295 292 292 293 291
204 200 204 210 216 224 223 212 204 201 204 217 225 241 256 267 281 288 286 292 306 314 311 306 308 314 314 313 316 317 317 315 311 307 306 305 302 294 287 286 290 290
201 198 201 208 214 220 221 210 199 194 201 217 231 246 260 272 281 287 292 301 313 318 317 313 311 313 314 313 311 307 305 304 303 303 304 304 302 294 285 281 286 289
200 197 200 205 210 216 216 207 198 197 203 215 233 249 262 270 275 284 294 303 310 313 312 309 305 304 303 304 302 299 300 301 301 301 302 303 301 293 285 282 284 289
199 197 199 202 207 211 212 207 203 204 206 219 237 247 258 267 271 278 286 292 299 302 300 297 294 292 293 297 299 299 301 303 304 303 302 302 299 294 291 288 286 289
200 197 197 198 202 207 209 210 210 209 213 226 235 239 253 263 265 271 280 284 288 288 287 288 288 290 293 294 295 296 301 308 311 310 306 303 303 303 302 297 295 295
201 198 196 195 195 200 206 211 213 215 222 230 234 242 254 259 261 270 278 280 280 279 280 283 287 290 291 288 289 295 303 309 313 313 310 309 309 309 308 307 309 309
202 200 197 192 190 196 206 213 213 215 223 230 236 247 255 257 262 268 270 273 282 285 282 281 285 288 284 283 289 296 300 305 309 310 309 309 309 307 308 309 311 314
205 201 196 194 197 203 210 217 214 213 223 231 238 248 253 255 259 261 263 272 290 296 291 285 287 293 294 292 291 289 293 300 304 305 304 304 304 304 305 304 304 309
203 200 199 198 202 209 217 222 217 212 219 230 238 244 249 254 257 260 265 276 290 296 295 291 293 304 307 297 286 284 292 296 297 300 302 302 301 302 302 301 300 301
197 202 207 205 206 213 220 224 222 217 219 227 235 241 247 252 257 264 269 275 284 288 290 292 296 303 305 296 287 285 289 291 294 300 303 302 302 303 303 302 298 295
199 206 208 209 214 217 220 228 229 226 227 231 236 242 249 251 255 266 274 275 277 278 281 288 292 293 293 292 290 287 287 292 297 301 302 301 301 304 305 304 298 292
210 210 206 210 221 221 223 229 231 232 233 234 238 244 250 253 255 265 276 277 274 273 277 283 285 284 282 284 287 286 285 291 296 298 298 298 299 303 306 306 301 294
215 208 206 216 225 224 224 228 231 235 236 236 239 243 249 254 256 264 274 277 276 277 278 278 279 278 276 277 281 281 280 285 290 290 290 293 297 301 304 305 302 297
216 207 212 223 225 224 226 228 233 239 240 240 240 240 247 254 257 263 271 275 277 277 276 276 277 275 271 269 271 271 272 278 281 280 283 291 297 299 300 302 302 300
214 210 218 222 223 227 228 229 234 239 243 244 240 239 245 251 257 266 273 276 277 276 275 276 274 269 265 264 267 269 271 276 278 279 284 293 298 299 299 300 302 302
211 214 221 218 223 229 229 231 235 238 242 243 240 239 242 247 258 270 274 274 273 275 277 277 274 270 269 274 278 278 278 280 280 280 285 290 294 297 300 300 301 302
213 218 219 217 224 229 231 234 235 238 243 244 241 241 243 249 259 265 268 269 269 273 278 278 276 276 281 286 287 284 282 282 279 278 282 288 291 295 297 299 302 303
218 217 213 216 226 231 235 237 236 241 247 244 243 245 246 251 256 260 265 269 270 273 274 273 275 281 289 291 288 286 285 283 278 278 283 288 290 291 292 297 305 305
218 214 210 219 231 237 240 240 239 245 248 247 247 245 243 248 253 256 262 269 270 270 270 273 279 285 288 286 284 285 285 282 280 282 284 286 287 287 290 299 307 306
Height
1550 1550 1550 1550 1550 1550 1550 1551 1551 1551 1550 1550 1550 1550 1550 1550 1550 1551 1551 1551 1551 1551 1550 1549 1549 1549 1549 1548 1548 1548 1548 1548 1547 1547 1547 1546 1546 1545 1545 1544 1544 1544
1548 1548 1549 1549 1549 1549 1549 1549 1549 1549 1549 1549 1548 1548 1548 1549 1549 1549 1550 1550 1550 1550 1549 1548 1548 1548 1547 1547 1547 1547 1547 1547 1547 1546 1546 1545 1545 1544 1544 1543 1543 1542
1546 1546 1547 1547 1547 1547 1547 1547 1548 1548 1548 1547 1547 1547 1547 1547 1548 1548 1548 1549 1549 1549 1548 1547 1547 1546 1546 1546 1546 1546 1546 1546 1546 1545 1545 1544 1544 1543 1542 1542 1541 1540
1544 1544 1545 1546 1546 1546 1545 1546 1546 1547 1547 1546 1546 1546 1546 1546 1547 1547 1547 1547 1548 1548 1547 1546 1546 1545 1545 1545 1545 1545 1545 1545 1545 1544 1543 1543 1542 1541 1541 1540 1539 1539
1542 1542 1543 1544 1544 1544 1544 1544 1545 1545 1545 1546 1546 1546 1546 1546 1546 1546 1546 1546 1546 1546 1546 1545 1545 1544 1543 1543 1543 1543 1543 1543 1543 1543 1542 1541 1541 1540 1539 1538 1538 1537
1539 1540 1540 1541 1542 1543 1543 1543 1543 1543 1544 1545 1545 1545 1545 1545 1545 1545 1545 1545 1545 1545 1545 1544 1543 1542 1542 1542 1542 1542 1542 1542 1542 1541 1541 1540 1539 1538 1538 1537 1536 1535
1536 1537 1538 1539 1540 1541 1541 1541 1541 1542 1543 1544 1544 1544 1544 1544 1544 1544 1544 1543 1543 1543 1543 1543 1542 1541 1541 1540 1540 1540 1540 1540 1540 1540 1539 1538 1537 1537 1536 1535 1534 1533
1533 1534 1535 1536 1537 1538 1539 1539 1539 1540 1541 1542 1542 1543 1543 1543 1543 1543 1543 1542 1542 1542 1542 1541 1541 1540 1540 1539 1539 1539 1538 1538 1538 1538 1537 1536 1535 1534 1533 1533 1531 1530
1530 1531 1532 1534 1535 1536 1537 1537 1537 1538 1539 1540 1540 1541 1541 1542 1541 1541 1541 1540 1540 1540 1540 1540 1540 1539 1538 1538 1537 1537 1537 1536 1536 1535 1535 1534 1533 1532 1531 1530 1529 1528
1526 1528 1529 1531 1532 1534 1535 1535 1535 1536 1537 1538 1538 1539 1539 1540 1540 1540 1539 1539 1538 1538 1538 1538 1538 1538 1537 1536 1536 1535 1534 1534 1533 1533 1533 1532 1531 1530 1529 1528 1527 1526
1523 1524 1526 1528 1530 1531 1533 1533 1533 1533 1534 1535 1536 1537 1537 1538 1538 1538 1537 1537 1537 1537 1537 1537 1536 1536 1535 1534 1534 1533 1532 1532 1531 1531 1530 1530 1529 1528 1527 1526 1525 1523
1520 1521 1524 1525 1527 1529 1530 1531 1531 1531 1532 1533 1534 1535 1535 1536 1536 1536 1535 1535 1535 1535 1535 1535 1534 1534 1533 1533 1532 1531 1530 1530 1529 1528 1528 1528 1527 1526 1525 1524 1522 1521
1516 1518 1521 1523 1524 1526 1527 1528 1529 1529 1530 1530 1531 1532 1533 1533 1533 1533 1533 1533 1533 1533 1533 1532 1532 1532 1531 1531 1530 1530 1529 1528 1527 1526 1526 1525 1524 1523 1522 1521 1520 1519
1514 1516 1518 1520 1522 1523 1525 1526 1526 1527 1527 1528 1529 1530 1531 1531 1531 1532 1532 1532 1532 1531 1531 1530 1530 1530 1529 1529 1528 1528 1527 1526 1525 1524 1523 1523 1522 1521 1520 1518 1517 1516
1512 1514 1516 1518 1520 1521 1522 1523 1524 1525 1526 1526 1527 1528 1529 1530 1530 1530 1530 1530 1530 1529 1529 1528 1528 1528 1527 1527 1527 1526 1525 1524 1523 1522 1521 1520 1519 1518 1517 1515 1514 1514
1510 1513 1515 1517 1517 1519 1520 1521 1522 1523 1524 1525 1526 1527 1527 1527 1528 1528 1528 1528 1527 1527 1527 1526 1526 1526 1525 1525 1525 1524 1523 1522 1521 1520 1518 1517 1516 1515 1514 1513 1512 1510
1510 1512 1514 1514 1515 1517 1518 1519 1521 1521 1522 1523 1524 1524 1525 1525 1525 1525 1525 1525 1525 1525 1525 1524 1524 1524 1524 1523 1523 1522 1521 1520 1518 1517 1516 1514 1513 1512 1510 1509 1508 1507
1506 1507 1510 1512 1514 1515 1517 1518 1519 1520 1520 1521 1521 1522 1522 1523 1523 1523 1523 1523 1522 1522 1522 1521 1521 1521 1521 1521 1521 1520 1519 1517 1516 1515 1513 1512 1510 1508 1507 1505 1504 1503
1503 1504 1507 1510 1512 1513 1515 1516 1517 1517 1518 1519 1519 1520 1520 1520 1521 1521 1521 1520 1519 1519 1519 1518 1518 1518 1518 1518 1518 1517 1516 1515 1514 1512 1510 1509 1507 1505 1504 1502 1501 1500
1501 1502 1505 1508 1509 1511 1512 1513 1514 1514 1515 1516 1516 1517 1518 1518 1518 1518 1517 1517 1517 1517 1516 1516 1516 1516 1516 1516 1515 1514 1514 1513 1511 1510 1508 1506 1504 1502 1501 1500 1498 1498
1499 1500 1503 1505 1507 1508 1509 1510 1511 1511 1512 1513 1513 1514 1514 1515 1515 1514 1514 1514 1514 1514 1513 1513 1513 1513 1513 1513 1512 1512 1511 1510 1508 1506 1505 1503 1502 1500 1499 1497 1496 1495
1498 1498 1500 1502 1503 1505 1505 1507 1507 1508 1508 1509 1510 1510 1511 1511 1511 1511 1510 1510 1511 1511 1511 1510 1510 1510 1510 1510 1509 1509 1508 1507 1505 1503 1502 1501 1500 1498 1496 1495 1494 1493
1496 1496 1497 1498 1500 1501 1502 1503 1503 1504 1505 1506 1506 1507 1507 1508 1508 1508 1508 1508 1508 1509 1508 1508 1508 1508 1508 1507 1507 1506 1505 1504 1502 1501 1500 1499 1497 1496 1494 1493 1492 1490
1493 1493 1494 1495 1496 1497 1498 1499 1499 1500 1502 1503 1504 1504 1505 1505 1505 1505 1505 1505 1506 1506 1506 1505 1505 1505 1505 1505 1504 1503 1502 1501 1500 1498 1497 1496 1495 1493 1492 1490 1489 1488
1491 1490 1491 1492 1493 1493 1494 1495 1496 1498 1499 1500 1501 1502 1502 1503 1503 1503 1504 1503 1503 1503 1502 1502 1503 1502 1502 1502 1501 1500 1499 1498 1497 1496 1494 1493 1492 1491 1489 1488 1486 1485
1487 1488 1488 1489 1490 1491 1491 1493 1494 1495 1497 1498 1499 1499 1500 1500 1501 1501 1501 1501 1500 1500 1500 1500 1500 1499 1499 1498 1498 1497 1496 1495 1494 1493 1492 1491 1490 1488 1487 1485 1484 1482